Regional Weather Roundup
Issued by NWS

Home | Current Version | Previous Version | Graphics & Text | Print | Product List | Glossary Off
Versions: 1 2 3 4 5 6 7 8 9 10 11 12 13 14 15 16 17 18 19 20 21 22 23 24 25 26 27 28 29 30 31 32 33 34 35 36 37 38 39 40 41 42 43 44 45 46 47 48 49 50

000
ASUS43 KDMX 222106
RWRIA

WEATHER ROUNDUP FOR IOWA
NATIONAL WEATHER SERVICE DES MOINES IA
300 PM CST WED NOV 22 2017

NOTE: "FAIR" INDICATES FEW OR NO CLOUDS BELOW 12,000 FEET WITH NO
SIGNIFICANT WEATHER AND/OR OBSTRUCTIONS TO VISIBILITY.

* - THESE STATIONS ARE NOT NWS STATIONS...THUS NOT UNDER NWS
QUALITY CONTROL.  THEY ALSO DO NOT REPORT WEATHER SUCH
AS PRECIPITATION OR FOG.

IAZ001>003-012>014-020>022-031>034-043>046-222200-
   NORTHWEST IOWA

CITY           SKY/WX    TMP DP  RH WIND       PRES   REMARKS
CARROLL *      CLOUDY    37  14  38 SW16G23   30.15F WCI  28
CHEROKEE *     CLOUDY    36  14  41 S17       30.11F WCI  25
DENISON *      CLOUDY    36  14  41 S14G20    30.16F WCI  27
LE MARS *      CLOUDY    37  16  41 S22       30.08F WCI  27
ORANGE CITY *  CLOUDY    36  18  48 S16       30.08F WCI  26
SHELDON *      CLOUDY    34  14  44 S16       30.06F WCI  23
SIOUX CITY     MOSUNNY   38  17  42 S15       30.13F WCI  29
SPENCER        CLOUDY    36  13  38 S14       30.10F WCI  27
STORM LAKE *   CLOUDY    36  12  38 S20       30.10F WCI  25
$$

IAZ055>058-069>071-079>083-090>094-222200-
   SOUTHWEST IOWA

CITY           SKY/WX    TMP DP  RH WIND       PRES   REMARKS
ATLANTIC *     MOSUNNY   36  14  41 S14G20    30.17F WCI  27
AUDUBON *      CLOUDY    36  14  41 S13       30.17F WCI  27
CLARINDA *     MOSUNNY   39  16  38 S13       30.23F WCI  32
COUNCIL BLFS * MOSUNNY   37  16  41 S15       30.15F WCI  28
CRESTON *      SUNNY     37  14  38 SW12      30.21F WCI  30
HARLAN  *      CLOUDY    36  16  44 S15       30.19F WCI  26
LAMONI         SUNNY     38  13  35 SW12      30.22F WCI  30
RED OAK *      MOSUNNY   37  16  41 S15       30.20S WCI  28
SHENANDOAH *   CLOUDY    39  16  38 S10G17    30.22S WCI  32
$$

IAZ047>049-059>061-072>074-084-222200-
   CENTRAL IOWA

CITY           SKY/WX    TMP DP  RH WIND       PRES   REMARKS
AMES           CLOUDY    36  15  42 SW14      30.19F WCI  27
ANKENY *       SUNNY     37  12  35 SW10      30.22F WCI  30
BOONE *        MOSUNNY   36  12  38 SW12G17   30.16F WCI  27
CHARITON *     MOSUNNY   39  10  30 S13       30.21F WCI  32
DES MOINES     PTSUNNY   38  12  34 S12       30.22F WCI  30
GRINNELL*      MOSUNNY   36  11  36 SW12      30.23F WCI  28
KNOXVILLE *    MOSUNNY   39   9  28 S9        30.20F WCI  33
MARSHALLTOWN   MOSUNNY   34  13  41 S13       30.20F WCI  25
NEWTON *       MOSUNNY   37  12  35 SW8G16    30.22F WCI  31
PELLA *        MOSUNNY   39  10  30 SW10      30.24F WCI  32
PERRY *          N/A     37  11  35 S14       30.17F WCI  28
$$

IAZ004>006-015-016-023>025-035-036-222200-
   NORTH CENTRAL IOWA

CITY           SKY/WX    TMP DP  RH WIND       PRES   REMARKS
ALGONA *       MOSUNNY   36  16  44 S17       30.11F WCI  25
CLARION *      CLOUDY    34  14  44 S16       30.16F WCI  23
ESTHERVILLE    CLOUDY    33  14  45 S18       30.08F WCI  22
FORT DODGE *   CLOUDY    35  14  42 S15       30.15F WCI  25
MASON CITY     CLOUDY    32  12  43 SW13      30.17F WCI  22
FOREST CITY *  PTSUNNY   32  16  51 S13       30.14F WCI  22
WEBSTER CITY * CLOUDY    36  14  41 S13       30.15F WCI  27
IOWA FALLS *     N/A     34  15  46 S10       30.20F WCI  26
$$

IAZ007>011-017>019-026>030-037>042-050>054-066-222200-
   NORTHEAST IOWA

CITY           SKY/WX    TMP DP  RH WIND       PRES   REMARKS
CEDAR RAPIDS   CLOUDY    34  13  41 SW8       30.24F WCI  27
CHARLES CITY * CLOUDY    32  12  43 SW13      30.19F WCI  22
CLINTON *      MOSUNNY   34  16  47 W8        30.27F WCI  27
DECORAH *      MOSUNNY   28  14  54 VRB6G13   30.18F WCI  22
DUBUQUE        MOSUNNY   32  14  47 SW8       30.21F WCI  25
MONTICELLO *   CLOUDY    34  12  40 SW8       30.23F WCI  27
OELWEIN *      CLOUDY    32  16  51 SW10      30.21F WCI  24
WATERLOO       MOSUNNY   33  11  39 SW10      30.21F WCI  25
$$

IAZ064-065-067-068-078-222200-
   EAST CENTRAL IOWA

CITY           SKY/WX    TMP DP  RH WIND       PRES   REMARKS
DAVENPORT      MOSUNNY   34  14  43 W7        30.29F WCI  28
IOWA CITY      MOSUNNY   36  15  42 SW9       30.27F WCI  29
MT. PLEASANT * MOSUNNY   36  13  38 SW6       30.27F WCI  31
MUSCATINE *    CLOUDY    36  14  41 VRB5      30.28F WCI  32
QUAD CITIES    CLOUDY    36  15  42 W7        30.28S WCI  30
$$

IAZ062-063-075>077-085>089-095>099-222200-
   SOUTHEAST IOWA

CITY           SKY/WX    TMP DP  RH WIND       PRES   REMARKS
BURLINGTON     CLOUDY    35  18  49 SW7       30.27F WCI  29
FAIRFIELD *    MOSUNNY   37  10  32 S7        30.25F WCI  32
FORT MADISON * CLOUDY    36  16  44 CALM      30.28F
KEOKUK *       CLOUDY    37  16  41 W5        30.27F WCI  34
OSKALOOSA *      N/A     37  11  34 SW7       30.24F WCI  31
OTTUMWA        PTSUNNY   38  12  34 S7        30.24F WCI  33
WASHINGTON *   MOSUNNY   36  14  41 SW7       30.27F WCI  30
$$

ABBREVIATIONS USED IN REMARKS
   TC - TEMPERATURES IN CELSIUS
  WCI - WIND CHILL INDEX
   HX - HEAT INDEX
  VSB - VISIBILITY
$$




USA.gov is the U.S. government's official web portal to all federal, state and local government web resources and services.